Hourly Weather Bolshie Shidy

Today, 2 August, Monday

Time Temperature Precipitation Wind Pressure Humidity
00:00 +18°C° 0 mm 0 mps 749 mmHg 72%
01:00 +17°C° 0 mm 0 mps 749 mmHg 75%
02:00 +17°C° 0 mm 0 mps 749 mmHg 77%
03:00 +17°C° 0 mm 0 mps 750 mmHg 79%
04:00 +16°C° 0 mm 0 mps 750 mmHg 81%
05:00 +18°C° 0 mm 0 mps 750 mmHg 77%
06:00 +19°C° 0 mm 0 mps 750 mmHg 74%
07:00 +20°C° 0 mm 0 mps 750 mmHg 70%
08:00 +24°C° 0 mm 1 mps 750 mmHg 64%
09:00 +26°C° 0 mm 1 mps 751 mmHg 58%
10:00 +27°C° 0 mm 2 mps 751 mmHg 51%
11:00 +28°C° 0 mm 2 mps 751 mmHg 47%
12:00 +29°C° 0 mm 2 mps 751 mmHg 43%
13:00 +30°C° 0 mm 2 mps 750 mmHg 40%
14:00 +30°C° 0 mm 2 mps 750 mmHg 38%
15:00 +31°C° 0 mm 2 mps 750 mmHg 37%
16:00 +31°C° 0 mm 2 mps 750 mmHg 36%
17:00 +29°C° 0 mm 1 mps 750 mmHg 43%
18:00 +28°C° 0 mm 1 mps 750 mmHg 49%
19:00 +24°C° 0 mm 0 mps 750 mmHg 56%
20:00 +25°C° 0 mm 1 mps 750 mmHg 57%
21:00 +24°C° 0 mm 1 mps 750 mmHg 59%
22:00 +23°C° 0 mm 1 mps 750 mmHg 61%
23:00 +22°C° 0 mm 1 mps 750 mmHg 63%

Tomorrow, 3 August, Tuesday

Time Temperature Precipitation Wind Pressure Humidity
00:00 +21°C° 0 mm 1 mps 750 mmHg 65%
01:00 +20°C° 0 mm 1 mps 750 mmHg 67%
02:00 +20°C° 0 mm 1 mps 750 mmHg 68%
03:00 +20°C° 0 mm 1 mps 750 mmHg 68%
04:00 +19°C° 0 mm 1 mps 750 mmHg 69%
05:00 +21°C° 0 mm 1 mps 750 mmHg 66%
06:00 +22°C° 0 mm 1 mps 750 mmHg 64%
07:00 +23°C° 0 mm 1 mps 751 mmHg 61%
08:00 +25°C° 0 mm 2 mps 750 mmHg 54%
09:00 +27°C° 0 mm 2 mps 750 mmHg 47%
10:00 +30°C° 0 mm 2 mps 750 mmHg 39%
11:00 +31°C° 0 mm 2 mps 750 mmHg 36%
12:00 +33°C° 0 mm 1 mps 750 mmHg 32%
13:00 +35°C° 0 mm 1 mps 749 mmHg 29%
14:00 +35°C° 0 mm 1 mps 749 mmHg 28%
15:00 +35°C° 0 mm 1 mps 749 mmHg 27%
16:00 +36°C° 0 mm 1 mps 748 mmHg 27%
17:00 +35°C° 0 mm 2 mps 748 mmHg 35%
18:00 +31°C° 0 mm 2 mps 748 mmHg 44%
19:00 +29°C° 0 mm 2 mps 748 mmHg 53%
20:00 +28°C° 0 mm 2 mps 748 mmHg 54%
21:00 +27°C° 0 mm 2 mps 748 mmHg 56%
22:00 +25°C° 0 mm 2 mps 748 mmHg 58%
23:00 +25°C° 0 mm 1 mps 748 mmHg 58%

Day after tomorrow, 4 August, Wednesday

Time Temperature Precipitation Wind Pressure Humidity
00:00 +25°C° 0 mm 1 mps 748 mmHg 59%
01:00 +24°C° 0 mm 1 mps 749 mmHg 59%
02:00 +24°C° 0 mm 1 mps 748 mmHg 60%
03:00 +23°C° 0 mm 1 mps 748 mmHg 61%
04:00 +23°C° 0 mm 1 mps 748 mmHg 62%
05:00 +24°C° 0 mm 1 mps 748 mmHg 60%
06:00 +25°C° 0 mm 1 mps 748 mmHg 59%
07:00 +26°C° 0 mm 1 mps 748 mmHg 57%
08:00 +28°C° 0 mm 1 mps 748 mmHg 52%
09:00 +29°C° 0 mm 2 mps 748 mmHg 46%
10:00 +31°C° 0 mm 2 mps 748 mmHg 40%
11:00 +34°C° 0 mm 2 mps 748 mmHg 36%
12:00 +36°C° 0 mm 2 mps 748 mmHg 31%
13:00 +37°C° 0 mm 1 mps 748 mmHg 26%
14:00 +37°C° 0 mm 1 mps 747 mmHg 25%
15:00 +39°C° 0 mm 1 mps 747 mmHg 23%
16:00 +39°C° 0 mm 1 mps 746 mmHg 21%
17:00 +34°C° 0.4 mm 2 mps 747 mmHg 40%
18:00 +28°C° 0.4 mm 4 mps 747 mmHg 58%
19:00 +22°C° 0.4 mm 5 mps 748 mmHg 76%
20:00 +22°C° 0.2 mm 4 mps 748 mmHg 75%
21:00 +21°C° 0.2 mm 3 mps 748 mmHg 75%
22:00 +22°C° 0.2 mm 1 mps 748 mmHg 74%
23:00 +21°C° 0.1 mm 1 mps 748 mmHg 75%

5 August, Thursday

Time Temperature Precipitation Wind Pressure Humidity
00:00 +21°C° 0.1 mm 1 mps 748 mmHg 76%
01:00 +21°C° 0.1 mm 1 mps 748 mmHg 77%
02:00 +20°C° 0 mm 1 mps 748 mmHg 77%
03:00 +20°C° 0 mm 1 mps 748 mmHg 78%
04:00 +20°C° 0 mm 1 mps 748 mmHg 78%
05:00 +19°C° 0 mm 0 mps 748 mmHg 77%
06:00 +20°C° 0 mm 0 mps 748 mmHg 75%
07:00 +21°C° 0 mm 0 mps 748 mmHg 73%
08:00 +24°C° 0 mm 1 mps 748 mmHg 68%
09:00 +25°C° 0 mm 2 mps 749 mmHg 64%
10:00 +27°C° 0 mm 3 mps 749 mmHg 59%
11:00 +28°C° 0 mm 3 mps 749 mmHg 55%
12:00 +29°C° 0 mm 3 mps 748 mmHg 51%
13:00 +30°C° 0 mm 3 mps 748 mmHg 47%
14:00 +30°C° 0 mm 3 mps 748 mmHg 47%
15:00 +29°C° 0 mm 3 mps 748 mmHg 47%
16:00 +29°C° 0 mm 4 mps 748 mmHg 47%
17:00 +28°C° 0 mm 4 mps 748 mmHg 53%
18:00 +26°C° 0 mm 4 mps 749 mmHg 59%
19:00 +25°C° 0 mm 4 mps 749 mmHg 65%
20:00 +22°C° 0 mm 3 mps 749 mmHg 70%
21:00 +21°C° 0 mm 3 mps 749 mmHg 74%
22:00 +20°C° 0 mm 2 mps 749 mmHg 79%
23:00 +19°C° 0 mm 2 mps 749 mmHg 83%

6 August, Friday

Time Temperature Precipitation Wind Pressure Humidity
00:00 +18°C° 0 mm 2 mps 749 mmHg 87%
01:00 +18°C° 0 mm 2 mps 749 mmHg 91%
02:00 +17°C° 0 mm 2 mps 749 mmHg 92%
03:00 +17°C° 0 mm 2 mps 749 mmHg 93%
04:00 +17°C° 0 mm 2 mps 749 mmHg 95%
05:00 +18°C° 0 mm 3 mps 749 mmHg 88%
06:00 +19°C° 0 mm 3 mps 749 mmHg 81%
07:00 +20°C° 0 mm 3 mps 749 mmHg 75%
08:00 +21°C° 0 mm 4 mps 749 mmHg 66%
09:00 +23°C° 0 mm 4 mps 749 mmHg 57%
10:00 +25°C° 0 mm 4 mps 749 mmHg 48%
11:00 +26°C° 0 mm 4 mps 749 mmHg 45%
12:00 +27°C° 0 mm 4 mps 749 mmHg 41%
13:00 +27°C° 0 mm 5 mps 749 mmHg 38%
14:00 +27°C° 0 mm 5 mps 749 mmHg 37%
15:00 +27°C° 0 mm 5 mps 749 mmHg 36%
16:00 +27°C° 0 mm 5 mps 749 mmHg 35%
17:00 +25°C° 0 mm 5 mps 749 mmHg 38%
18:00 +23°C° 0 mm 5 mps 749 mmHg 41%
19:00 +22°C° 0 mm 5 mps 749 mmHg 44%
20:00 +20°C° 0 mm 4 mps 749 mmHg 51%
21:00 +18°C° 0 mm 3 mps 749 mmHg 57%
22:00 +16°C° 0 mm 2 mps 749 mmHg 63%
23:00 +14°C° 0 mm 3 mps 749 mmHg 66%

7 August, Saturday

Time Temperature Precipitation Wind Pressure Humidity
00:00 +14°C° 0 mm 3 mps 750 mmHg 69%
01:00 +13°C° 0 mm 3 mps 750 mmHg 72%
02:00 +14°C° 0 mm 3 mps 750 mmHg 68%
03:00 +14°C° 0 mm 3 mps 750 mmHg 65%
04:00 +16°C° 0 mm 3 mps 750 mmHg 62%
05:00 +16°C° 0 mm 3 mps 750 mmHg 62%
06:00 +15°C° 0 mm 4 mps 750 mmHg 61%
07:00 +15°C° 0 mm 4 mps 751 mmHg 61%
08:00 +17°C° 0 mm 4 mps 751 mmHg 56%
09:00 +19°C° 0 mm 5 mps 751 mmHg 51%
10:00 +20°C° 0 mm 5 mps 751 mmHg 46%
11:00 +21°C° 0 mm 5 mps 751 mmHg 44%
12:00 +22°C° 0 mm 5 mps 751 mmHg 42%
13:00 +22°C° 0 mm 5 mps 751 mmHg 41%
14:00 +22°C° 0 mm 5 mps 751 mmHg 44%
15:00 +21°C° 0 mm 5 mps 752 mmHg 48%
16:00 +20°C° 0 mm 5 mps 752 mmHg 52%
17:00 +20°C° 0 mm 4 mps 752 mmHg 55%
18:00 +19°C° 0 mm 4 mps 752 mmHg 57%
19:00 +18°C° 0 mm 3 mps 753 mmHg 59%
20:00 +16°C° 0 mm 3 mps 753 mmHg 62%
21:00 +14°C° 0 mm 3 mps 753 mmHg 64%
22:00 +14°C° 0 mm 2 mps 754 mmHg 67%
23:00 +13°C° 0 mm 2 mps 754 mmHg 69%
Show more

We Need Your Consent

Meteoprog and our Service Providers may store and access personal data such as cookies, device identifiers or other similar technologies on your device and process such data to personalise content and ads, as well as provide social media features and to analyse the traffic.

  • Store and/or access information on your device

    Cookies, device identifiers or other information can be stored or accessed on your device for the purposes indicated above.

  • Personalised ads and content, ad and content measurement, audience insights, and products development

    Ads and content can be personalised based on a profile. More data can be added to better personalise ads and content. Ad and content performance can be measured. Insights about the audience who saw the ads and content can be derived. Such data can be used to develop or improve user’s experience, systems and software.

By clicking ‘I Agree’ you will allow the use of indicated cookies, device identifiers, web beacons or other similar technologies. Your settings can be changed in the browser on your device.

For certain purposes, legitimate interests may be relied on, rather than consent. You can read more about this in our Privacy and Cookie Policy.